Regional Weather Roundup
Issued by NWS

Home | Current Version | Previous Version | Graphics & Text | Print | Product List | Glossary On
Versions: 1 2 3 4 5 6 7 8 9 10 11 12 13 14 15 16 17 18 19 20 21 22 23 24 25 26 27 28 29 30 31 32 33 34 35 36 37 38 39 40 41 42 43 44 45 46 47 48 49 50
000
ASUS43 KOAX 110610
RWRNE

WEATHER ROUNDUP FOR NEBRASKA
NATIONAL WEATHER SERVICE OMAHA NE
1200 AM CST THU FEB 11 2016

NOTES: SATELLITE DATA IS BEING USED TO AUGMENT CLOUD COVER ABOVE
       12000 FEET.
       "FAIR" INDICATES FEW OR NO CLOUDS BELOW 12,000 FEET WITH NO
       SIGNIFICANT WEATHER AND/OR OBSTRUCTIONS TO VISIBILITY.

  * THESE STATIONS DO NOT REPORT WEATHER SUCH AS RAIN...SNOW OR FOG.

NEZ001>004-019>022-054>056-110700-
NEBRASKA PANHANDLE

CITY           SKY/WX    TMP DP  RH WIND       PRES   REMARKS
SCOTTSBLUFF    CLEAR     32  25  75 N6        30.15R WCI  26
6HR MIN TEMP:  32; 6HR MAX TEMP:  52;

ALLIANCE       CLEAR     27  23  85 CALM      30.12R
6HR MIN TEMP:  27; 6HR MAX TEMP:  44;

CHADRON        CLEAR     27  23  85 W6        30.13R WCI  20
6HR MIN TEMP:  26; 6HR MAX TEMP:  53;

KIMBALL        CLEAR     37  23  57 NW15      30.16R WCI  28
SIDNEY         CLEAR     33  25  72 W12       30.15R WCI  24
6HR MIN TEMP:  33; 6HR MAX TEMP:  43;

$$

NEZ057>060-069>072-079>082-110700-
SOUTHWEST NEBRASKA

CITY           SKY/WX    TMP DP  RH WIND       PRES   REMARKS
NORTH PLATTE   CLOUDY    34  27  75 CALM      30.13R
6HR MIN TEMP:  32; 6HR MAX TEMP:  47;

IMPERIAL       CLOUDY    36  27  69 NW8       30.15R WCI  30
6HR MIN TEMP:  35; 6HR MAX TEMP:  46;

LEXINGTON      CLOUDY    32  27  83 NE8       30.13R WCI  25
MCCOOK         CLEAR     36  29  75 NE12      30.12R WCI  28
6HR MIN TEMP:  33; 6HR MAX TEMP:  50;

OGALLALA       CLOUDY    31  25  80 W7        30.14R WCI  24
$$

NEZ005>010-023>029-035>040-094-110700-
NORTH CENTRAL NEBRASKA

CITY           SKY/WX    TMP DP  RH WIND       PRES   REMARKS
VALENTINE      CLOUDY    28  25  88 N13       30.17R WCI  17
6HR MIN TEMP:  28; 6HR MAX TEMP:  45;

AINSWORTH      CLOUDY    30  27  87 N14       30.16R WCI  20
BROKEN BOW     CLOUDY    29  26  89 N8        30.14R WCI  21
6HR MIN TEMP:  29; 6HR MAX TEMP:  50;

O`NEILL        CLOUDY    25  23  91 N3        30.16S
ORD            CLOUDY    29  25  85 N7        30.14R WCI  22
6HR MIN TEMP:  27; 6HR MAX TEMP:  43;

THEDFORD       CLOUDY    30  28  93 N7        30.15R WCI  23
$$

NEZ041-046>049-061>064-073>077-083>087-110700-
SOUTH CENTRAL NEBRASKA

CITY           SKY/WX    TMP DP  RH WIND       PRES   REMARKS
GRAND ISLAND   CLOUDY    26  23  88 N7        30.15R WCI  18
6HR MIN TEMP:  25; 6HR MAX TEMP:  41;

AURORA         CLOUDY    26  24  91 NE8       30.15R WCI  18
HASTINGS       CLEAR     27  23  85 N7        30.13R WCI  19
6HR MIN TEMP:  27; 6HR MAX TEMP:  43;

HEBRON         CLEAR     29  26  85 N12       30.12R WCI  20
HOLDREGE       CLEAR     31  28  88 NE7       30.13R WCI  24
KEARNEY *      CLEAR     28  27  93 N7        30.14R WCI  21
YORK           MOCLDY    23  21  93 NE10      30.15R WCI  12
$$

NEZ011>018-030>034-042>045-110700-
NORTHEAST NEBRASKA

CITY           SKY/WX    TMP DP  RH WIND       PRES   REMARKS
NORFOLK        CLOUDY    22  17  81 NE7       30.17R WCI  13
6HR MIN TEMP:  22; 6HR MAX TEMP:  31;

ALBION         CLOUDY    24  20  85 N8        30.16R WCI  15
BLAIR          CLOUDY    19  15  87 N10       30.17R WCI   7
COLUMBUS *     MOCLDY    21  10  63 NE7       30.19R WCI  13
FREMONT        CLOUDY    19  14  82 N6        30.19R WCI  11
TEKAMAH        CLOUDY    19  14  81 N9        30.21R WCI   8
6HR MIN TEMP:  17; 6HR MAX TEMP:  26;

WAYNE          CLOUDY    18  15  86 NE6       30.20S WCI  10
$$

NEZ050>053-065>068-078-088>093-110700-
SOUTHEAST NEBRASKA

CITY           SKY/WX    TMP DP  RH WIND       PRES   REMARKS
LINCOLN        CLOUDY    22  18  85 N10       30.18R WCI  11
6HR MIN TEMP:  22; 6HR MAX TEMP:  34;

OMAHA EPPLEY   CLOUDY    20  15  81 NE8       30.20R WCI  10
6HR MIN TEMP:  20; 6HR MAX TEMP:  31;

BEATRICE       CLOUDY    27  24  91 NE14      30.13R WCI  15
FALLS CITY     CLEAR     27  21  78 NE8       30.13R WCI  19
6HR MIN TEMP:  27; 6HR MAX TEMP:  42;

NEBRASKA CITY  CLOUDY    25  22  89 NE13      30.15R WCI  14
PLATTSMOUTH    CLOUDY    22  19  87 NE5       30.17R WCI  16
$$

NEZ044-045-051>053-067-110700-
OMAHA AREA

CITY           SKY/WX    TMP DP  RH WIND       PRES   REMARKS
OMAHA EPPLEY   CLOUDY    20  15  81 NE8       30.20R WCI  10
6HR MIN TEMP:  20; 6HR MAX TEMP:  31;

BLAIR          CLOUDY    19  15  87 N10       30.17R WCI   7
FREMONT        CLOUDY    19  14  82 N6        30.19R WCI  11
MILLARD        CLOUDY    22  17  80 CALM      30.19R
OFFUTT AFB     PTCLDY    21  17  84 NE8       30.18R WCI  11
PLATTSMOUTH    CLOUDY    22  19  87 NE5       30.17R WCI  16
WAHOO          FAIR      19  16  86 N7        30.19R WCI  10
$$



USA.gov is the U.S. government's official web portal to all federal, state and local government web resources and services.